Torna al catalogo

STARLINK-31891

AttivoComunicazioniVLEO
NORAD 59854·PAYLOAD·🇺🇸 United States

Lanciato May 23, 2024 da Cape Canaveral Space Force Station

Loading…

Prossimi Passaggi (prossime 24 ore)

TLE

AggiornatoSource: CelesTrak SupGP

Epoca: Sep 14, 2026, 21:04 UTC

1 59854C 24097V   26257.87826389 -.00002308  00000+0 -83605-4 0  2573
2 59854  43.0005 286.1928 0001394 266.8559 234.9444 15.27573361    10

Traccia STARLINK-31891 in tempo reale con AllMySat

Download on the App Store